{"data":{"norad_id":34713,"intl_designator":"2009-017A","name":"WGS F2 (USA 204)","alt_names":[],"object_type":"PAYLOAD","status":"ACTIVE","operator":null,"country":"US","launch_date":"2009-04-04","launch_site_code":"AFETR","launch_vehicle":null,"mission":null,"orbit_class":"UNKNOWN","rcs_meters":5.0119,"size_class":null,"mass_kg":null,"dimensions":null,"purposes":["comms"],"wikipedia_slug":null,"has_3d_model":false,"image_url":null,"decayed_at":null,"tle_current":{"epoch":"2026-09-19T03:33:37.416672Z","epoch_age_seconds":135078,"freshness":"FRESH","line1":"1 34713U 09017A   26262.14834973  .00000000  00000+0  00000+0 0  9990","line2":"2 34713   0.0192 155.3321 0000376 338.4802 335.1616  1.00269869 46563","mean_motion":1.00269869,"eccentricity":3.76e-5,"inclination_deg":0.0192,"raan_deg":155.3321,"arg_perigee_deg":338.4802,"mean_anomaly_deg":335.1616,"bstar":0,"rev_number":4656,"period_min":1436.1243455898,"perigee_km":35785.546679979,"apogee_km":35788.717508214,"semimajor_km":42165.269094096,"source":"CELESTRAK","updated_at":"2026-09-20T09:00:35.157398Z"}}}